Time,TemperatureF,DewpointF,PressureIn,WindDirection,WindDirectionDegrees,WindSpeedMPH,WindSpeedGustMPH,Humidity,HourlyPrecipIn,Conditions,Clouds,dailyrainin,SoftwareType,DateUTC
2013-08-08 00:03:00,46.4,40.2,29.84,West,271,2.3,2.3,79,0.00,CLR,,0.00,WeatherDisplay:10.37,2013-08-08 06:03:00,
2013-08-08 00:08:00,46.2,40.0,29.84,West,271,2.3,2.3,79,0.00,CLR,,0.00,WeatherDisplay:10.37,2013-08-08 06:08:00,
2013-08-08 00:13:00,46.0,39.9,29.84,West,271,1.2,0.0,79,0.00,CLR,,0.00,WeatherDisplay:10.37,2013-08-08 06:13:00,
2013-08-08 00:18:00,45.8,40.0,29.84,West,271,1.0,1.0,80,0.00,CLR,,0.00,WeatherDisplay:10.37,2013-08-08 06:18:00,
2013-08-08 00:23:00,45.5,40.0,29.84,West,271,1.2,0.0,81,0.00,CLR,,0.00,WeatherDisplay:10.37,2013-08-08 06:23:00,
2013-08-08 00:28:00,45.4,39.9,29.84,West,271,2.3,2.3,81,0.00,CLR,,0.00,WeatherDisplay:10.37,2013-08-08 06:28:00,
2013-08-08 00:33:00,45.2,40.3,29.86,NW,309,3.0,3.0,83,0.00,CLR,,0.00,WeatherDisplay:10.37,2013-08-08 06:33:00,
2013-08-08 00:38:00,45.1,40.2,29.86,NW,314,1.2,1.2,83,0.00,CLR,,0.00,WeatherDisplay:10.37,2013-08-08 06:38:00,
2013-08-08 00:43:00,44.9,40.0,29.86,NW,314,1.2,1.2,83,0.00,CLR,,0.00,WeatherDisplay:10.37,2013-08-08 06:43:00,
2013-08-08 00:48:00,44.8,40.3,29.86,NW,314,2.3,2.3,84,0.00,CLR,,0.00,WeatherDisplay:10.37,2013-08-08 06:48:00,
2013-08-08 00:53:00,44.6,40.1,29.86,NW,314,3.5,3.5,84,0.00,CLR,,0.00,WeatherDisplay:10.37,2013-08-08 06:53:00,
2013-08-08 00:58:00,44.6,40.1,29.86,NW,314,2.3,2.3,84,0.00,CLR,,0.00,WeatherDisplay:10.37,2013-08-08 06:58:00,
2013-08-08 01:03:00,44.9,40.0,29.86,NW,314,3.5,3.5,83,0.00,CLR,,0.00,WeatherDisplay:10.37,2013-08-08 07:03:00,
2013-08-08 01:08:00,45.4,39.9,29.86,NW,313,3.5,3.5,81,0.00,CLR,,0.00,WeatherDisplay:10.37,2013-08-08 07:08:00,
2013-08-08 01:13:00,45.7,39.2,29.86,NW,313,3.5,3.5,78,0.00,CLR,,0.00,WeatherDisplay:10.37,2013-08-08 07:13:00,
2013-08-08 01:18:00,45.7,39.2,29.83,NW,313,1.2,0.0,78,0.00,CLR,,0.00,WeatherDisplay:10.37,2013-08-08 07:18:00,
2013-08-08 01:23:00,45.4,38.9,29.83,NW,313,0.0,0.0,78,0.00,CLR,,0.00,WeatherDisplay:10.37,2013-08-08 07:23:00,
2013-08-08 01:28:00,44.9,39.1,29.83,NW,313,3.5,3.5,80,0.00,CLR,,0.00,WeatherDisplay:10.37,2013-08-08 07:28:00,
2013-08-08 01:33:00,44.5,39.0,29.84,NW,313,3.5,3.5,81,0.00,CLR,,0.00,WeatherDisplay:10.37,2013-08-08 07:33:00,
2013-08-08 01:38:00,44.1,38.6,29.84,NW,313,3.5,3.5,81,0.00,CLR,,0.00,WeatherDisplay:10.37,2013-08-08 07:38:00,
2013-08-08 01:43:00,43.9,38.8,29.84,NNW,341,3.5,3.5,82,0.00,CLR,,0.00,WeatherDisplay:10.37,2013-08-08 07:43:00,
2013-08-08 01:48:00,43.8,39.0,29.84,NNW,341,2.3,2.3,83,0.00,CLR,,0.00,WeatherDisplay:10.37,2013-08-08 07:48:00,
2013-08-08 01:53:00,43.5,38.7,29.84,NNW,341,2.3,2.3,83,0.00,CLR,,0.00,WeatherDisplay:10.37,2013-08-08 07:53:00,
2013-08-08 01:58:00,43.5,39.0,29.84,NNW,341,3.5,3.5,84,0.00,CLR,,0.00,WeatherDisplay:10.37,2013-08-08 07:58:00,
2013-08-08 02:03:00,43.3,38.8,29.86,NNW,341,2.3,2.3,84,0.00,CLR,,0.00,WeatherDisplay:10.37,2013-08-08 08:03:00,
2013-08-08 02:08:00,43.2,38.7,29.86,NNW,341,3.5,3.5,84,0.00,CLR,,0.00,WeatherDisplay:10.37,2013-08-08 08:08:00,
2013-08-08 02:13:00,43.1,38.9,29.86,NNW,341,2.3,2.3,85,0.00,CLR,,0.00,WeatherDisplay:10.37,2013-08-08 08:13:00,
2013-08-08 02:18:00,43.1,38.9,29.87,NNW,341,2.3,2.3,85,0.00,CLR,,0.00,WeatherDisplay:10.37,2013-08-08 08:18:00,
2013-08-08 02:23:00,43.1,38.9,29.87,NNW,341,0.0,0.0,85,0.00,CLR,,0.00,WeatherDisplay:10.37,2013-08-08 08:23:00,
2013-08-08 02:28:00,42.9,38.7,29.87,NNW,341,1.2,1.2,85,0.00,CLR,,0.00,WeatherDisplay:10.37,2013-08-08 08:28:00,
2013-08-08 02:33:00,42.6,38.4,29.87,NNE,25,2.3,2.3,85,0.00,CLR,,0.00,WeatherDisplay:10.37,2013-08-08 08:33:00,
2013-08-08 02:38:00,42.5,38.3,29.87,North,350,5.0,5.0,85,0.00,CLR,,0.00,WeatherDisplay:10.37,2013-08-08 08:38:00,
2013-08-08 02:43:00,42.3,38.1,29.87,NNW,336,4.6,4.6,85,0.00,CLR,,0.00,WeatherDisplay:10.37,2013-08-08 08:43:00,
2013-08-08 02:48:00,42.3,38.1,29.87,SW,227,2.3,2.3,85,0.00,CLR,,0.00,WeatherDisplay:10.37,2013-08-08 08:48:00,
2013-08-08 02:53:00,42.3,38.1,29.87,SW,228,2.0,2.0,85,0.00,CLR,,0.00,WeatherDisplay:10.37,2013-08-08 08:53:00,
2013-08-08 02:58:00,42.1,37.6,29.87,North,358,3.0,3.0,84,0.00,CLR,,0.00,WeatherDisplay:10.37,2013-08-08 08:58:00,
2013-08-08 03:03:00,41.8,37.3,29.88,NNW,343,1.2,0.0,84,0.00,CLR,,0.00,WeatherDisplay:10.37,2013-08-08 09:03:00,
2013-08-08 03:08:00,41.9,38.0,29.88,NW,321,1.2,1.2,86,0.00,CLR,,0.00,WeatherDisplay:10.37,2013-08-08 09:08:00,
2013-08-08 03:13:00,42.1,37.9,29.88,NW,321,1.2,1.2,85,0.00,CLR,,0.00,WeatherDisplay:10.37,2013-08-08 09:13:00,
2013-08-08 03:18:00,41.9,37.7,29.88,East,90,2.3,2.3,85,0.00,CLR,,0.00,WeatherDisplay:10.37,2013-08-08 09:18:00,
2013-08-08 03:23:00,41.6,37.4,29.88,East,90,2.0,2.0,85,0.00,CLR,,0.00,WeatherDisplay:10.37,2013-08-08 09:23:00,
2013-08-08 03:28:00,41.3,37.1,29.88,WNW,303,2.3,2.3,85,0.00,CLR,,0.00,WeatherDisplay:10.37,2013-08-08 09:28:00,
2013-08-08 03:33:00,41.1,36.9,29.89,WNW,303,1.2,0.0,85,0.00,CLR,,0.00,WeatherDisplay:10.37,2013-08-08 09:33:00,
2013-08-08 03:38:00,41.1,37.2,29.89,NNW,336,4.6,4.6,86,0.00,CLR,,0.00,WeatherDisplay:10.37,2013-08-08 09:38:00,
2013-08-08 03:43:00,40.8,36.9,29.89,NNW,336,0.0,0.3,86,0.00,CLR,,0.00,WeatherDisplay:10.37,2013-08-08 09:43:00,
2013-08-08 03:48:00,40.8,36.9,29.89,NW,317,2.3,2.3,86,0.00,CLR,,0.00,WeatherDisplay:10.37,2013-08-08 09:48:00,
2013-08-08 03:53:00,41.1,37.2,29.89,ENE,60,2.3,2.3,86,0.00,CLR,,0.00,WeatherDisplay:10.37,2013-08-08 09:53:00,
2013-08-08 03:58:00,40.8,36.9,29.89,ENE,60,0.0,0.0,86,0.00,CLR,,0.00,WeatherDisplay:10.37,2013-08-08 09:58:00,
2013-08-08 04:03:00,40.8,36.9,29.89,NNW,328,3.5,3.5,86,0.00,CLR,,0.00,WeatherDisplay:10.37,2013-08-08 10:03:00,
2013-08-08 04:08:00,40.9,37.0,29.89,NNW,327,0.0,0.0,86,0.00,CLR,,0.00,WeatherDisplay:10.37,2013-08-08 10:08:00,
2013-08-08 04:13:00,40.9,37.0,29.89,NNW,327,1.2,1.2,86,0.00,CLR,,0.00,WeatherDisplay:10.37,2013-08-08 10:13:00,
2013-08-08 04:18:00,40.8,36.6,29.91,NNW,327,0.0,0.0,85,0.00,CLR,,0.00,WeatherDisplay:10.37,2013-08-08 10:18:00,
2013-08-08 04:23:00,40.6,36.4,29.91,NNW,327,2.3,2.3,85,0.00,CLR,,0.00,WeatherDisplay:10.37,2013-08-08 10:23:00,
2013-08-08 04:28:00,40.5,36.3,29.91,NNW,327,0.0,0.0,85,0.00,CLR,,0.00,WeatherDisplay:10.37,2013-08-08 10:28:00,
2013-08-08 04:33:00,40.5,36.3,29.91,NNW,327,2.3,2.3,85,0.00,CLR,,0.00,WeatherDisplay:10.37,2013-08-08 10:33:00,
2013-08-08 04:38:00,40.5,36.3,29.91,NNW,327,0.0,0.0,85,0.00,CLR,,0.00,WeatherDisplay:10.37,2013-08-08 10:38:00,
2013-08-08 04:43:00,40.5,36.0,29.91,NNW,327,2.3,2.3,84,0.00,CLR,,0.00,WeatherDisplay:10.37,2013-08-08 10:43:00,
2013-08-08 04:48:00,40.6,36.1,29.91,NNW,327,2.0,2.0,84,0.00,CLR,,0.00,WeatherDisplay:10.37,2013-08-08 10:48:00,
2013-08-08 04:53:00,40.8,36.3,29.91,NNE,18,2.3,2.3,84,0.00,CLR,,0.00,WeatherDisplay:10.37,2013-08-08 10:53:00,
2013-08-08 04:58:00,40.6,36.4,29.91,NNW,348,4.6,4.6,85,0.00,CLR,,0.00,WeatherDisplay:10.37,2013-08-08 10:58:00,
2013-08-08 05:03:00,40.8,36.6,29.91,NNW,348,2.3,2.3,85,0.00,CLR,,0.00,WeatherDisplay:10.37,2013-08-08 11:03:00,
2013-08-08 05:08:00,40.6,36.4,29.91,NNW,348,2.3,2.3,85,0.00,CLR,,0.00,WeatherDisplay:10.37,2013-08-08 11:08:00,
2013-08-08 05:13:00,40.8,36.6,29.91,NNW,348,1.2,0.0,85,0.00,CLR,,0.00,WeatherDisplay:10.37,2013-08-08 11:13:00,
2013-08-08 05:18:00,40.8,36.6,29.88,NNW,348,2.3,2.3,85,0.00,CLR,,0.00,WeatherDisplay:10.37,2013-08-08 11:18:00,
2013-08-08 05:23:00,40.8,36.6,29.88,NNW,348,2.3,2.3,85,0.00,CLR,,0.00,WeatherDisplay:10.37,2013-08-08 11:23:00,
2013-08-08 05:28:00,40.9,36.7,29.88,NNW,348,1.2,1.2,85,0.00,CLR,,0.00,WeatherDisplay:10.37,2013-08-08 11:28:00,
2013-08-08 05:33:00,40.9,36.7,29.87,NNW,348,0.0,0.0,85,0.00,CLR,,0.00,WeatherDisplay:10.37,2013-08-08 11:33:00,
2013-08-08 05:38:00,41.1,36.9,29.87,NNW,348,0.0,0.0,85,0.00,CLR,,0.00,WeatherDisplay:10.37,2013-08-08 11:38:00,
2013-08-08 05:43:00,41.2,37.0,29.87,NNW,348,0.0,0.0,85,0.00,CLR,,0.00,WeatherDisplay:10.37,2013-08-08 11:43:00,
2013-08-08 05:48:00,41.3,37.1,29.88,NNW,348,1.2,0.0,85,0.00,CLR,,0.00,WeatherDisplay:10.37,2013-08-08 11:48:00,
2013-08-08 05:53:00,41.5,37.3,29.88,NNW,348,0.0,0.0,85,0.00,CLR,,0.00,WeatherDisplay:10.37,2013-08-08 11:53:00,
2013-08-08 05:58:00,41.6,37.1,29.88,NNW,348,2.3,2.3,84,0.00,CLR,,0.00,WeatherDisplay:10.37,2013-08-08 11:58:00,
2013-08-08 06:03:00,41.8,37.6,29.86,NNW,348,3.5,3.5,85,0.00,CLR,,0.00,WeatherDisplay:10.37,2013-08-08 12:03:00,
2013-08-08 06:08:00,41.9,37.7,29.86,NNW,348,2.3,2.3,85,0.00,CLR,,0.00,WeatherDisplay:10.37,2013-08-08 12:08:00,
2013-08-08 06:13:00,42.1,37.6,29.86,NNW,348,3.0,3.0,84,0.00,CLR,,0.00,WeatherDisplay:10.37,2013-08-08 12:13:00,
2013-08-08 06:18:00,42.1,37.6,29.88,NNW,348,1.2,1.2,84,0.00,CLR,,0.00,WeatherDisplay:10.37,2013-08-08 12:18:00,
2013-08-08 06:23:00,42.1,37.6,29.88,NNW,348,3.0,3.0,84,0.00,CLR,,0.00,WeatherDisplay:10.37,2013-08-08 12:23:00,
2013-08-08 06:28:00,42.1,37.6,29.88,NNW,348,2.3,2.3,84,0.00,CLR,,0.00,WeatherDisplay:10.37,2013-08-08 12:28:00,
2013-08-08 06:33:00,42.1,37.3,29.88,NNW,348,2.3,2.3,83,0.00,CLR,,0.00,WeatherDisplay:10.37,2013-08-08 12:33:00,
2013-08-08 06:38:00,42.2,37.4,29.88,North,2,2.3,2.3,83,0.00,CLR,,0.00,WeatherDisplay:10.37,2013-08-08 12:38:00,
2013-08-08 06:43:00,42.2,37.4,29.88,NNE,29,4.6,4.6,83,0.00,CLR,,0.00,WeatherDisplay:10.37,2013-08-08 12:43:00,
2013-08-08 06:48:00,42.3,37.5,29.89,NNE,29,2.3,2.3,83,0.00,CLR,,0.00,WeatherDisplay:10.37,2013-08-08 12:48:00,
2013-08-08 06:53:00,42.6,37.5,29.89,NNE,31,2.3,2.3,82,0.00,CLR,,0.00,WeatherDisplay:10.37,2013-08-08 12:53:00,
2013-08-08 06:58:00,42.9,37.8,29.89,NNE,31,0.0,0.0,82,0.00,CLR,,0.00,WeatherDisplay:10.37,2013-08-08 12:58:00,
2013-08-08 07:03:00,43.5,38.7,29.89,NNE,31,1.2,1.2,83,0.00,CLR,,0.00,WeatherDisplay:10.37,2013-08-08 13:03:00,
2013-08-08 07:08:00,44.2,39.7,29.89,NNE,31,0.0,0.0,84,0.00,CLR,,0.00,WeatherDisplay:10.37,2013-08-08 13:08:00,
2013-08-08 07:13:00,45.1,39.3,29.89,ESE,110,2.3,2.3,80,0.00,CLR,,0.00,WeatherDisplay:10.37,2013-08-08 13:13:00,
2013-08-08 07:18:00,45.7,39.6,29.93,ESE,110,0.0,0.0,79,0.00,CLR,,0.00,WeatherDisplay:10.37,2013-08-08 13:18:00,
2013-08-08 07:23:00,46.2,39.7,29.93,ESE,110,1.2,0.0,78,0.00,CLR,,0.00,WeatherDisplay:10.37,2013-08-08 13:23:00,
2013-08-08 07:28:00,46.7,39.5,29.93,ESE,110,0.0,0.0,76,0.00,CLR,,0.00,WeatherDisplay:10.37,2013-08-08 13:28:00,
2013-08-08 07:33:00,47.4,39.9,29.92,ESE,112,0.0,0.0,75,0.00,CLR,,0.00,WeatherDisplay:10.37,2013-08-08 13:33:00,
2013-08-08 07:38:00,48.3,40.0,29.92,ESE,112,0.0,0.0,73,0.00,CLR,,0.00,WeatherDisplay:10.37,2013-08-08 13:38:00,
2013-08-08 07:43:00,49.1,40.1,29.92,ESE,112,1.2,1.2,71,0.00,CLR,,0.00,WeatherDisplay:10.37,2013-08-08 13:43:00,
2013-08-08 07:48:00,49.2,39.8,29.91,SE,128,1.2,0.0,70,0.00,CLR,,0.00,WeatherDisplay:10.37,2013-08-08 13:48:00,
2013-08-08 07:53:00,49.5,40.1,29.91,SE,128,0.0,0.0,70,0.00,CLR,,0.00,WeatherDisplay:10.37,2013-08-08 13:53:00,
2013-08-08 07:58:00,49.9,40.9,29.91,SE,128,0.0,0.0,71,0.00,CLR,,0.00,WeatherDisplay:10.37,2013-08-08 13:58:00,
2013-08-08 08:03:00,50.7,41.3,29.89,SE,128,1.0,0.0,70,0.00,CLR,,0.00,WeatherDisplay:10.37,2013-08-08 14:03:00,
2013-08-08 08:08:00,52.0,42.5,29.89,SE,128,0.0,0.0,70,0.00,CLR,,0.00,WeatherDisplay:10.37,2013-08-08 14:08:00,
2013-08-08 08:13:00,53.2,42.9,29.89,SE,128,1.2,1.2,68,0.00,CLR,,0.00,WeatherDisplay:10.37,2013-08-08 14:13:00,
2013-08-08 08:18:00,54.2,42.7,29.91,SE,128,0.0,0.0,65,0.00,CLR,,0.00,WeatherDisplay:10.37,2013-08-08 14:18:00,
2013-08-08 08:23:00,55.0,41.8,29.91,SE,128,1.2,0.0,61,0.00,CLR,,0.00,WeatherDisplay:10.37,2013-08-08 14:23:00,
2013-08-08 08:28:00,55.6,41.9,29.91,SE,128,1.2,1.2,60,0.00,CLR,,0.00,WeatherDisplay:10.37,2013-08-08 14:28:00,
2013-08-08 08:33:00,55.7,42.0,29.89,SE,146,2.3,2.3,60,0.00,CLR,,0.00,WeatherDisplay:10.37,2013-08-08 14:33:00,
2013-08-08 08:38:00,55.9,41.8,29.89,SE,146,2.3,2.3,59,0.00,CLR,,0.00,WeatherDisplay:10.37,2013-08-08 14:38:00,
2013-08-08 08:43:00,56.0,41.4,29.89,SSE,166,2.3,2.3,58,0.00,CLR,,0.00,WeatherDisplay:10.37,2013-08-08 14:43:00,
2013-08-08 08:48:00,56.7,42.1,29.89,SSE,166,1.2,1.2,58,0.00,CLR,,0.00,WeatherDisplay:10.37,2013-08-08 14:48:00,
2013-08-08 08:53:00,57.6,42.5,29.89,SSE,166,0.0,0.0,57,0.00,CLR,,0.00,WeatherDisplay:10.37,2013-08-08 14:53:00,
2013-08-08 08:58:00,59.0,42.4,29.89,SSE,166,1.2,0.0,54,0.00,CLR,,0.00,WeatherDisplay:10.37,2013-08-08 14:58:00,
2013-08-08 09:04:00,60.5,43.8,29.86,SSE,163,2.3,2.3,54,0.00,CLR,,0.00,WeatherDisplay:10.37,2013-08-08 15:04:00,
2013-08-08 09:09:00,61.6,44.3,29.86,SSE,168,1.2,1.2,53,0.00,CLR,,0.00,WeatherDisplay:10.37,2013-08-08 15:09:00,
2013-08-08 09:14:00,62.7,45.3,29.86,South,172,1.2,1.2,53,0.00,CLR,,0.00,WeatherDisplay:10.37,2013-08-08 15:14:00,
2013-08-08 09:19:00,62.9,44.5,29.85,South,172,2.3,2.3,51,0.00,CLR,,0.00,WeatherDisplay:10.37,2013-08-08 15:19:00,
2013-08-08 09:24:00,62.6,45.7,29.85,South,172,3.5,3.5,54,0.00,CLR,,0.00,WeatherDisplay:10.37,2013-08-08 15:24:00,
2013-08-08 09:29:00,62.6,45.2,29.85,South,172,1.2,1.2,53,0.00,CLR,,0.00,WeatherDisplay:10.37,2013-08-08 15:29:00,
2013-08-08 09:34:00,62.6,44.7,29.85,South,172,0.0,0.0,52,0.00,CLR,,0.00,WeatherDisplay:10.37,2013-08-08 15:34:00,
2013-08-08 09:39:00,62.6,45.7,29.85,South,175,3.5,3.5,54,0.00,CLR,,0.00,WeatherDisplay:10.37,2013-08-08 15:39:00,
2013-08-08 09:44:00,62.6,46.2,29.85,South,175,2.3,2.3,55,0.00,CLR,,0.00,WeatherDisplay:10.37,2013-08-08 15:44:00,
2013-08-08 09:49:00,63.1,45.2,29.85,South,169,0.0,0.0,52,0.00,CLR,,0.00,WeatherDisplay:10.37,2013-08-08 15:49:00,
2013-08-08 09:54:00,63.4,46.5,29.85,SSE,166,2.3,2.3,54,0.00,CLR,,0.00,WeatherDisplay:10.37,2013-08-08 15:54:00,
2013-08-08 09:59:00,63.9,45.4,29.85,SSE,166,1.2,1.2,51,0.00,CLR,,0.00,WeatherDisplay:10.37,2013-08-08 15:59:00,
2013-08-08 10:04:00,63.9,45.4,29.84,SSE,166,1.2,1.2,51,0.00,CLR,,0.00,WeatherDisplay:10.37,2013-08-08 16:04:00,
2013-08-08 10:09:00,64.2,45.7,29.84,SSE,166,1.2,1.2,51,0.00,CLR,,0.00,WeatherDisplay:10.37,2013-08-08 16:09:00,
2013-08-08 10:14:00,64.3,45.8,29.84,East,90,3.5,3.5,51,0.00,CLR,,0.00,WeatherDisplay:10.37,2013-08-08 16:14:00,
2013-08-08 10:19:00,64.0,45.0,29.87,SE,128,2.3,2.3,50,0.00,CLR,,0.00,WeatherDisplay:10.37,2013-08-08 16:19:00,
2013-08-08 10:24:00,63.9,45.9,29.87,East,79,6.9,6.9,52,0.00,CLR,,0.00,WeatherDisplay:10.37,2013-08-08 16:24:00,
2013-08-08 10:29:00,64.0,46.5,29.87,East,84,5.0,5.0,53,0.00,CLR,,0.00,WeatherDisplay:10.37,2013-08-08 16:29:00,
2013-08-08 10:34:00,64.0,46.5,29.88,NNE,24,4.6,4.6,53,0.00,CLR,,0.00,WeatherDisplay:10.37,2013-08-08 16:34:00,
2013-08-08 10:39:00,64.3,46.3,29.88,NE,43,2.3,2.3,52,0.00,CLR,,0.00,WeatherDisplay:10.37,2013-08-08 16:39:00,
2013-08-08 10:44:00,64.7,47.7,29.88,North,1,3.5,3.5,54,0.00,CLR,,0.00,WeatherDisplay:10.37,2013-08-08 16:44:00,
2013-08-08 10:49:00,65.0,46.9,29.85,NNE,29,4.6,4.6,52,0.00,CLR,,0.00,WeatherDisplay:10.37,2013-08-08 16:49:00,
2013-08-08 10:54:00,65.2,46.6,29.85,NNE,26,0.0,0.0,51,0.00,CLR,,0.00,WeatherDisplay:10.37,2013-08-08 16:54:00,
2013-08-08 10:59:00,65.5,46.9,29.85,North,351,2.3,2.3,51,0.00,CLR,,0.00,WeatherDisplay:10.37,2013-08-08 16:59:00,
2013-08-08 11:04:00,66.0,47.3,29.85,North,357,2.3,2.3,51,0.00,CLR,,0.00,WeatherDisplay:10.37,2013-08-08 17:04:00,
2013-08-08 11:09:00,66.0,48.9,29.85,East,88,6.9,6.9,54,0.00,CLR,,0.00,WeatherDisplay:10.37,2013-08-08 17:09:00,
2013-08-08 11:14:00,66.0,48.9,29.85,South,189,6.9,6.9,54,0.00,CLR,,0.00,WeatherDisplay:10.37,2013-08-08 17:14:00,
2013-08-08 11:19:00,66.0,48.4,29.86,NE,36,5.8,5.8,53,0.00,CLR,,0.00,WeatherDisplay:10.37,2013-08-08 17:19:00,
2013-08-08 11:24:00,66.4,49.7,29.86,East,88,7.0,7.0,55,0.00,CLR,,0.00,WeatherDisplay:10.37,2013-08-08 17:24:00,
2013-08-08 11:29:00,66.8,51.1,29.86,ENE,67,8.1,8.1,57,0.00,CLR,,0.00,WeatherDisplay:10.37,2013-08-08 17:29:00,
2013-08-08 11:34:00,66.9,50.2,29.84,East,96,10.4,10.4,55,0.00,CLR,,0.00,WeatherDisplay:10.37,2013-08-08 17:34:00,
2013-08-08 11:39:00,66.6,50.4,29.84,East,90,10.4,10.4,56,0.00,CLR,,0.00,WeatherDisplay:10.37,2013-08-08 17:39:00,
2013-08-08 11:44:00,66.6,50.4,29.84,ENE,63,6.9,6.9,56,0.00,CLR,,0.00,WeatherDisplay:10.37,2013-08-08 17:44:00,
2013-08-08 11:49:00,67.6,52.3,29.84,NE,49,13.8,13.8,58,0.00,CLR,,0.00,WeatherDisplay:10.37,2013-08-08 17:49:00,
2013-08-08 11:54:00,68.3,52.0,29.84,East,79,8.1,8.1,56,0.00,CLR,,0.00,WeatherDisplay:10.37,2013-08-08 17:54:00,
2013-08-08 11:59:00,68.3,52.5,29.84,ENE,76,6.0,6.0,57,0.00,CLR,,0.00,WeatherDisplay:10.37,2013-08-08 17:59:00,
2013-08-08 12:04:00,68.3,52.5,29.83,East,83,4.6,4.6,57,0.00,CLR,,0.00,WeatherDisplay:10.37,2013-08-08 18:04:00,
2013-08-08 12:09:00,68.4,52.1,29.83,NE,38,8.1,8.1,56,0.00,CLR,,0.00,WeatherDisplay:10.37,2013-08-08 18:09:00,
2013-08-08 12:14:00,68.3,52.9,29.83,NNE,25,11.5,11.5,58,0.00,CLR,,0.00,WeatherDisplay:10.37,2013-08-08 18:14:00,
2013-08-08 12:19:00,68.4,53.5,29.85,NNE,24,11.5,11.5,59,0.00,CLR,,0.00,WeatherDisplay:10.37,2013-08-08 18:19:00,
2013-08-08 12:24:00,68.8,53.4,29.85,North,358,11.5,11.5,58,0.00,CLR,,0.00,WeatherDisplay:10.37,2013-08-08 18:24:00,
2013-08-08 12:29:00,68.9,53.0,29.85,NE,48,12.7,12.7,57,0.00,CLR,,0.00,WeatherDisplay:10.37,2013-08-08 18:29:00,
2013-08-08 12:34:00,68.6,52.3,29.82,NE,39,8.0,8.0,56,0.00,CLR,,0.00,WeatherDisplay:10.37,2013-08-08 18:34:00,
2013-08-08 12:39:00,68.8,53.4,29.82,ENE,69,6.9,6.9,58,0.00,CLR,,0.00,WeatherDisplay:10.37,2013-08-08 18:39:00,
2013-08-08 12:44:00,68.9,52.6,29.82,NE,48,13.0,13.0,56,0.00,CLR,,0.00,WeatherDisplay:10.37,2013-08-08 18:44:00,
2013-08-08 12:49:00,70.1,53.2,29.83,ENE,63,12.7,12.7,55,0.00,CLR,,0.00,WeatherDisplay:10.37,2013-08-08 18:49:00,
2013-08-08 12:54:00,71.1,53.6,29.83,NE,48,12.7,12.7,54,0.00,CLR,,0.00,WeatherDisplay:10.37,2013-08-08 18:54:00,
2013-08-08 12:59:00,71.5,53.5,29.83,North,9,11.5,11.5,53,0.00,CLR,,0.00,WeatherDisplay:10.37,2013-08-08 18:59:00,
2013-08-08 13:04:00,70.9,52.4,29.81,ENE,66,12.7,12.7,52,0.00,CLR,,0.00,WeatherDisplay:10.37,2013-08-08 19:04:00,
2013-08-08 13:09:00,70.3,52.9,29.81,East,97,12.7,12.7,54,0.00,CLR,,0.00,WeatherDisplay:10.37,2013-08-08 19:09:00,
2013-08-08 13:14:00,68.4,51.1,29.81,ENE,67,11.5,11.5,54,0.00,CLR,,0.00,WeatherDisplay:10.37,2013-08-08 19:14:00,
2013-08-08 13:19:00,68.1,51.8,29.87,ESE,121,11.5,11.5,56,0.00,CLR,,0.00,WeatherDisplay:10.37,2013-08-08 19:19:00,
2013-08-08 13:24:00,68.1,51.3,29.87,East,79,11.0,11.0,55,0.00,CLR,,0.00,WeatherDisplay:10.37,2013-08-08 19:24:00,
2013-08-08 13:29:00,68.4,51.1,29.87,ESE,117,11.5,11.5,54,0.00,CLR,,0.00,WeatherDisplay:10.37,2013-08-08 19:29:00,
2013-08-08 13:34:00,68.3,52.5,29.87,ENE,74,11.5,11.5,57,0.00,CLR,,0.00,WeatherDisplay:10.37,2013-08-08 19:34:00,
2013-08-08 13:39:00,69.4,51.5,29.87,NE,48,13.8,13.8,53,0.00,CLR,,0.00,WeatherDisplay:10.37,2013-08-08 19:39:00,
2013-08-08 13:44:00,70.1,51.7,29.87,East,79,6.9,6.9,52,0.00,CLR,,0.00,WeatherDisplay:10.37,2013-08-08 19:44:00,
2013-08-08 13:49:00,69.8,50.9,29.84,NE,46,7.0,7.0,51,0.00,CLR,,0.00,WeatherDisplay:10.37,2013-08-08 19:49:00,
2013-08-08 13:54:00,69.1,50.2,29.84,SE,124,8.1,8.1,51,0.00,CLR,,0.00,WeatherDisplay:10.37,2013-08-08 19:54:00,
2013-08-08 13:59:00,68.4,49.0,29.84,SE,146,5.0,5.0,50,0.00,CLR,,0.00,WeatherDisplay:10.37,2013-08-08 19:59:00,
2013-08-08 14:04:00,68.3,50.0,29.86,SE,128,6.9,6.9,52,0.00,CLR,,0.00,WeatherDisplay:10.37,2013-08-08 20:04:00,
2013-08-08 14:09:00,68.1,50.3,29.86,ESE,118,6.9,6.9,53,0.00,CLR,,0.00,WeatherDisplay:10.37,2013-08-08 20:09:00,
2013-08-08 14:14:00,66.9,49.2,29.86,SE,134,8.1,8.1,53,0.00,CLR,,0.00,WeatherDisplay:10.37,2013-08-08 20:14:00,
2013-08-08 14:19:00,65.8,49.2,29.88,ESE,122,5.8,5.8,55,0.00,CLR,,0.00,WeatherDisplay:10.37,2013-08-08 20:19:00,
2013-08-08 14:24:00,65.5,46.9,29.88,South,169,8.1,8.1,51,0.00,CLR,,0.00,WeatherDisplay:10.37,2013-08-08 20:24:00,
2013-08-08 14:29:00,65.5,44.7,29.88,SE,128,5.8,5.8,47,0.00,CLR,,0.00,WeatherDisplay:10.37,2013-08-08 20:29:00,
2013-08-08 14:34:00,65.5,45.3,29.90,SE,142,4.6,4.6,48,0.00,CLR,,0.00,WeatherDisplay:10.37,2013-08-08 20:34:00,
2013-08-08 14:39:00,65.6,43.7,29.90,SE,127,5.8,5.8,45,0.00,CLR,,0.00,WeatherDisplay:10.37,2013-08-08 20:39:00,
2013-08-08 14:44:00,65.5,43.0,29.90,ESE,122,5.8,5.8,44,0.00,CLR,,0.00,WeatherDisplay:10.37,2013-08-08 20:44:00,
2013-08-08 14:49:00,65.3,44.5,29.93,SE,128,4.6,4.6,47,0.00,CLR,,0.00,WeatherDisplay:10.37,2013-08-08 20:49:00,
2013-08-08 14:54:00,65.2,46.1,29.93,SE,128,2.3,2.3,50,0.00,CLR,,0.00,WeatherDisplay:10.37,2013-08-08 20:54:00,
2013-08-08 14:59:00,65.0,45.9,29.93,SE,128,4.6,4.6,50,0.00,CLR,,0.00,WeatherDisplay:10.37,2013-08-08 20:59:00,
2013-08-08 15:04:00,64.8,47.3,29.92,SE,128,3.5,3.5,53,0.00,CLR,,0.00,WeatherDisplay:10.37,2013-08-08 21:04:00,
2013-08-08 15:09:00,64.7,47.7,29.92,SE,128,3.5,3.5,54,0.00,CLR,,0.00,WeatherDisplay:10.37,2013-08-08 21:09:00,
2013-08-08 15:14:00,64.5,47.0,29.92,SSE,153,6.0,6.0,53,0.00,CLR,,0.00,WeatherDisplay:10.37,2013-08-08 21:14:00,
2013-08-08 15:20:00,63.9,39.1,29.92,SW,224,11.5,11.5,40,0.00,CLR,,0.00,WeatherDisplay:10.37,2013-08-08 21:20:00,
2013-08-08 15:25:00,63.4,38.6,29.92,West,269,11.5,11.5,40,0.00,CLR,,0.00,WeatherDisplay:10.37,2013-08-08 21:25:00,
2013-08-08 15:30:00,63.4,38.6,29.95,West,276,6.9,6.9,40,0.00,CLR,,0.00,WeatherDisplay:10.37,2013-08-08 21:30:00,
2013-08-08 15:35:00,62.9,37.5,29.95,West,261,16.1,16.1,39,0.00,CLR,,0.00,WeatherDisplay:10.37,2013-08-08 21:35:00,
2013-08-08 15:40:00,62.7,38.0,29.95,West,264,11.5,11.5,40,0.00,CLR,,0.00,WeatherDisplay:10.37,2013-08-08 21:40:00,
2013-08-08 15:45:00,62.7,36.7,29.95,West,280,18.0,18.0,38,0.00,CLR,,0.00,WeatherDisplay:10.37,2013-08-08 21:45:00,
2013-08-08 15:50:00,62.4,36.4,29.95,West,264,12.0,12.0,38,0.00,CLR,,0.00,WeatherDisplay:10.37,2013-08-08 21:50:00,
2013-08-08 15:55:00,61.8,36.6,29.95,WNW,286,16.1,16.1,39,0.00,CLR,,0.00,WeatherDisplay:10.37,2013-08-08 21:55:00,
2013-08-08 16:00:00,61.2,37.9,29.97,West,266,11.5,11.5,42,0.00,CLR,,0.00,WeatherDisplay:10.37,2013-08-08 22:00:00,
2013-08-08 16:05:00,59.5,42.3,29.97,West,280,11.0,11.0,53,0.01,RA,,0.01,WeatherDisplay:10.37,2013-08-08 22:05:00,
2013-08-08 16:10:00,59.0,42.8,29.97,WNW,282,11.5,11.5,55,0.01,RA,,0.01,WeatherDisplay:10.37,2013-08-08 22:10:00,
2013-08-08 16:15:00,59.2,43.5,29.98,West,273,10.0,10.0,56,0.01,,,0.01,WeatherDisplay:10.37,2013-08-08 22:15:00,
2013-08-08 16:20:00,59.9,43.2,29.98,WNW,299,11.5,11.5,54,0.01,CLR,,0.01,WeatherDisplay:10.37,2013-08-08 22:20:00,
2013-08-08 16:26:00,60.5,43.8,29.98,NNW,331,6.9,6.9,54,0.01,CLR,,0.01,WeatherDisplay:10.37,2013-08-08 22:26:00,
2013-08-08 16:31:00,61.0,42.7,29.98,WNW,302,4.6,4.6,51,0.01,CLR,,0.01,WeatherDisplay:10.37,2013-08-08 22:31:00,
2013-08-08 16:36:00,61.5,43.7,29.98,NW,317,5.8,5.8,52,0.01,CLR,,0.01,WeatherDisplay:10.37,2013-08-08 22:36:00,
2013-08-08 16:41:00,61.8,44.0,29.98,NNW,337,4.6,4.6,52,0.01,CLR,,0.01,WeatherDisplay:10.37,2013-08-08 22:41:00,
2013-08-08 16:46:00,62.0,43.7,29.98,North,350,5.8,5.8,51,0.01,CLR,,0.01,WeatherDisplay:10.37,2013-08-08 22:46:00,
2013-08-08 16:53:00,62.3,41.8,29.98,North,355,5.8,5.8,47,0.01,CLR,,0.01,WeatherDisplay:10.37,2013-08-08 22:53:00,
2013-08-08 16:58:00,62.4,43.0,29.98,North,354,5.8,5.8,49,0.01,CLR,,0.01,WeatherDisplay:10.37,2013-08-08 22:58:00,
2013-08-08 17:03:00,62.4,42.4,29.98,North,4,3.5,3.5,48,0.01,CLR,,0.01,WeatherDisplay:10.37,2013-08-08 23:03:00,
2013-08-08 17:08:00,62.6,43.7,29.98,NNW,348,5.0,5.0,50,0.00,CLR,,0.01,WeatherDisplay:10.37,2013-08-08 23:08:00,
2013-08-08 17:13:00,62.6,43.2,29.98,NNW,340,6.9,6.9,49,0.00,CLR,,0.01,WeatherDisplay:10.37,2013-08-08 23:13:00,
2013-08-08 17:19:00,62.7,40.5,29.97,North,358,8.1,8.1,44,0.00,CLR,,0.01,WeatherDisplay:10.37,2013-08-08 23:19:00,
2013-08-08 17:24:00,62.4,44.0,29.97,NNE,21,11.0,11.0,51,0.00,CLR,,0.01,WeatherDisplay:10.37,2013-08-08 23:24:00,
2013-08-08 17:29:00,61.6,44.3,29.96,North,2,8.1,8.1,53,0.00,CLR,,0.01,WeatherDisplay:10.37,2013-08-08 23:29:00,
2013-08-08 17:34:00,61.3,43.0,29.96,NNE,14,8.1,8.1,51,0.00,CLR,,0.01,WeatherDisplay:10.37,2013-08-08 23:34:00,
2013-08-08 17:39:00,61.2,42.9,29.96,NNE,22,10.4,10.4,51,0.00,CLR,,0.01,WeatherDisplay:10.37,2013-08-08 23:39:00,
2013-08-08 17:44:00,60.5,45.2,29.97,NNE,31,7.0,7.0,57,0.00,CLR,,0.01,WeatherDisplay:10.37,2013-08-08 23:44:00,
2013-08-08 17:49:00,60.4,45.5,29.97,ENE,57,4.6,4.6,58,0.00,CLR,,0.01,WeatherDisplay:10.37,2013-08-08 23:49:00,
2013-08-08 17:56:00,60.4,44.6,29.97,NNE,19,6.9,6.9,56,0.00,CLR,,0.01,WeatherDisplay:10.37,2013-08-08 23:56:00,
2013-08-08 18:01:00,60.7,42.5,29.98,North,4,8.1,8.1,51,0.00,CLR,,0.01,WeatherDisplay:10.37,2013-08-09 00:01:00,
2013-08-08 18:06:00,61.2,42.9,29.98,NNE,19,5.8,5.8,51,0.00,CLR,,0.01,WeatherDisplay:10.37,2013-08-09 00:06:00,
2013-08-08 18:11:00,61.5,42.7,29.98,NNE,29,5.0,5.0,50,0.00,CLR,,0.01,WeatherDisplay:10.37,2013-08-09 00:11:00,
2013-08-08 18:17:00,62.0,42.1,29.96,North,355,3.5,3.5,48,0.00,CLR,,0.01,WeatherDisplay:10.37,2013-08-09 00:17:00,
2013-08-08 18:22:00,62.6,39.2,29.96,ENE,67,1.2,1.2,42,0.00,CLR,,0.01,WeatherDisplay:10.37,2013-08-09 00:22:00,
2013-08-08 18:27:00,62.7,39.3,29.96,East,81,3.5,3.5,42,0.00,CLR,,0.01,WeatherDisplay:10.37,2013-08-09 00:27:00,
2013-08-08 18:32:00,62.6,39.8,29.95,East,81,1.2,0.0,43,0.00,CLR,,0.01,WeatherDisplay:10.37,2013-08-09 00:32:00,
2013-08-08 18:37:00,62.6,38.6,29.95,East,81,1.2,1.2,41,0.00,CLR,,0.01,WeatherDisplay:10.37,2013-08-09 00:37:00,
2013-08-08 18:42:00,62.6,40.4,29.95,NNW,334,2.3,2.3,44,0.00,CLR,,0.01,WeatherDisplay:10.37,2013-08-09 00:42:00,
2013-08-08 18:47:00,62.6,38.6,29.95,NW,312,3.5,3.5,41,0.00,CLR,,0.01,WeatherDisplay:10.37,2013-08-09 00:47:00,
2013-08-08 18:52:00,62.6,38.6,29.95,South,189,3.5,3.5,41,0.00,CLR,,0.01,WeatherDisplay:10.37,2013-08-09 00:52:00,
2013-08-08 18:57:00,62.3,43.9,29.95,East,81,4.6,4.6,51,0.00,CLR,,0.01,WeatherDisplay:10.37,2013-08-09 00:57:00,
2013-08-08 19:03:00,61.2,46.3,29.94,NE,50,4.6,4.6,58,0.00,CLR,,0.01,WeatherDisplay:10.37,2013-08-09 01:03:00,
2013-08-08 19:08:00,60.5,46.1,29.94,NE,43,5.8,5.8,59,0.00,CLR,,0.01,WeatherDisplay:10.37,2013-08-09 01:08:00,
2013-08-08 19:13:00,60.1,45.7,29.94,NNE,18,5.8,5.8,59,0.00,CLR,,0.01,WeatherDisplay:10.37,2013-08-09 01:13:00,
2013-08-08 19:18:00,59.8,45.9,29.89,NNE,16,4.6,4.6,60,0.00,CLR,,0.01,WeatherDisplay:10.37,2013-08-09 01:18:00,
2013-08-08 19:23:00,59.3,45.4,29.89,North,8,6.9,6.9,60,0.00,CLR,,0.01,WeatherDisplay:10.37,2013-08-09 01:23:00,
2013-08-08 19:28:00,58.9,45.0,29.89,North,358,5.8,5.8,60,0.00,CLR,,0.01,WeatherDisplay:10.37,2013-08-09 01:28:00,
2013-08-08 19:33:00,58.4,45.0,29.90,North,358,3.5,3.5,61,0.00,CLR,,0.01,WeatherDisplay:10.37,2013-08-09 01:33:00,
2013-08-08 19:38:00,58.1,45.6,29.90,NNE,16,7.0,7.0,63,0.00,CLR,,0.01,WeatherDisplay:10.37,2013-08-09 01:38:00,
2013-08-08 19:43:00,57.3,44.4,29.90,NE,45,6.9,6.9,62,0.00,CLR,,0.01,WeatherDisplay:10.37,2013-08-09 01:43:00,
2013-08-08 19:48:00,56.7,43.8,29.92,NNE,28,3.5,3.5,62,0.00,CLR,,0.01,WeatherDisplay:10.37,2013-08-09 01:48:00,
2013-08-08 19:53:00,56.3,43.4,29.92,NNE,26,3.5,3.5,62,0.00,CLR,,0.01,WeatherDisplay:10.37,2013-08-09 01:53:00,
2013-08-08 19:58:00,56.0,43.6,29.92,NNE,21,3.5,3.5,63,0.00,CLR,,0.01,WeatherDisplay:10.37,2013-08-09 01:58:00,
2013-08-08 20:04:00,55.6,43.2,29.94,North,355,6.9,6.9,63,0.00,CLR,,0.01,WeatherDisplay:10.37,2013-08-09 02:04:00,
2013-08-08 20:09:00,55.3,43.7,29.94,NE,38,4.6,4.6,65,0.00,CLR,,0.01,WeatherDisplay:10.37,2013-08-09 02:09:00,
2013-08-08 20:14:00,54.8,44.0,29.88,NE,35,3.5,3.5,67,0.00,CLR,,0.01,WeatherDisplay:10.37,2013-08-09 02:14:00,
2013-08-08 20:19:00,54.2,44.2,29.88,North,352,6.9,6.9,69,0.00,CLR,,0.01,WeatherDisplay:10.37,2013-08-09 02:19:00,
2013-08-08 20:24:00,54.1,44.2,29.88,NNE,12,5.8,5.8,69,0.00,CLR,,0.01,WeatherDisplay:10.37,2013-08-09 02:24:00,
2013-08-08 20:29:00,53.8,43.5,29.89,North,8,4.6,4.6,68,0.00,CLR,,0.01,WeatherDisplay:10.37,2013-08-09 02:29:00,
2013-08-08 20:35:00,53.5,43.2,29.89,NNE,24,4.6,4.6,68,0.00,CLR,,0.01,WeatherDisplay:10.37,2013-08-09 02:35:00,
2013-08-08 20:41:00,53.5,43.6,29.89,North,2,8.1,8.1,69,0.00,CLR,,0.01,WeatherDisplay:10.37,2013-08-09 02:41:00,
2013-08-08 20:46:00,53.6,43.7,29.90,North,352,4.6,4.6,69,0.00,CLR,,0.01,WeatherDisplay:10.37,2013-08-09 02:46:00,
2013-08-08 20:51:00,53.8,43.9,29.90,North,1,6.0,6.0,69,0.00,CLR,,0.01,WeatherDisplay:10.37,2013-08-09 02:51:00,
2013-08-08 20:56:00,53.9,43.2,29.90,North,5,6.9,6.9,67,0.00,CLR,,0.01,WeatherDisplay:10.37,2013-08-09 02:56:00,
2013-08-08 21:02:00,54.1,43.0,29.92,North,352,4.6,0.0,66,0.00,CLR,,0.01,WeatherDisplay:10.37,2013-08-09 03:02:00,
2013-08-08 21:07:00,54.2,44.6,29.92,NNE,25,8.1,8.1,70,0.00,CLR,,0.01,WeatherDisplay:10.37,2013-08-09 03:07:00,
2013-08-08 21:12:00,54.7,45.8,29.92,North,355,4.6,4.6,72,0.00,CLR,,0.01,WeatherDisplay:10.37,2013-08-09 03:12:00,
2013-08-08 21:17:00,54.8,46.7,29.89,NNE,32,3.5,3.5,74,0.00,CLR,,0.01,WeatherDisplay:10.37,2013-08-09 03:17:00,
2013-08-08 21:23:00,55.0,46.9,29.89,NNE,22,3.5,3.5,74,0.00,CLR,,0.01,WeatherDisplay:10.37,2013-08-09 03:23:00,
2013-08-08 21:28:00,54.8,46.3,29.89,NNE,22,8.0,8.0,73,0.00,CLR,,0.01,WeatherDisplay:10.37,2013-08-09 03:28:00,
2013-08-08 21:33:00,54.8,45.6,29.90,North,2,8.1,8.1,71,0.00,CLR,,0.01,WeatherDisplay:10.37,2013-08-09 03:33:00,
2013-08-08 21:38:00,55.0,45.8,29.90,North,5,3.5,3.5,71,0.00,CLR,,0.01,WeatherDisplay:10.37,2013-08-09 03:38:00,
2013-08-08 21:43:00,55.1,46.6,29.90,NNE,29,5.0,5.0,73,0.00,CLR,,0.01,WeatherDisplay:10.37,2013-08-09 03:43:00,
2013-08-08 21:48:00,55.1,46.6,29.91,ENE,64,2.0,2.0,73,0.00,CLR,,0.01,WeatherDisplay:10.37,2013-08-09 03:48:00,
2013-08-08 21:53:00,55.1,46.2,29.91,NE,43,3.5,3.5,72,0.00,CLR,,0.01,WeatherDisplay:10.37,2013-08-09 03:53:00,
2013-08-08 21:58:00,55.3,47.2,29.91,North,0,1.2,1.2,74,0.00,CLR,,0.01,WeatherDisplay:10.37,2013-08-09 03:58:00,
2013-08-08 22:01:00,55.3,47.2,29.91,North,0,1.2,0.0,74,0.00,CLR,,0.01,WeatherDisplay:10.37,2013-08-09 04:01:00,
2013-08-08 22:02:00,55.3,47.5,29.91,North,0,0.0,0.0,75,0.00,CLR,,0.01,WeatherDisplay:10.37,2013-08-09 04:02:00,
2013-08-08 22:03:00,55.3,47.5,29.91,North,0,0.0,0.0,75,0.00,CLR,,0.01,WeatherDisplay:10.37,2013-08-09 04:03:00,
2013-08-08 22:08:00,55.4,47.6,29.91,North,0,1.0,1.0,75,0.00,CLR,,0.01,WeatherDisplay:10.37,2013-08-09 04:08:00,
2013-08-08 22:13:00,55.4,48.0,29.91,North,0,2.3,2.3,76,0.00,CLR,,0.01,WeatherDisplay:10.37,2013-08-09 04:13:00,
2013-08-08 22:18:00,55.3,47.9,29.88,North,0,1.2,1.2,76,0.00,CLR,,0.01,WeatherDisplay:10.37,2013-08-09 04:18:00,
2013-08-08 22:23:00,55.3,47.9,29.88,North,0,0.0,0.0,76,0.00,CLR,,0.01,WeatherDisplay:10.37,2013-08-09 04:23:00,
2013-08-08 22:28:00,55.1,47.7,29.88,North,352,6.0,6.0,76,0.00,CLR,,0.01,WeatherDisplay:10.37,2013-08-09 04:28:00,
2013-08-08 22:33:00,55.1,47.7,29.87,North,352,4.6,4.6,76,0.00,CLR,,0.01,WeatherDisplay:10.37,2013-08-09 04:33:00,
2013-08-08 22:38:00,55.0,47.9,29.87,NNE,18,3.5,3.5,77,0.00,CLR,,0.01,WeatherDisplay:10.37,2013-08-09 04:38:00,
2013-08-08 22:43:00,55.0,48.3,29.87,NNE,31,5.0,5.0,78,0.00,CLR,,0.01,WeatherDisplay:10.37,2013-08-09 04:43:00,
2013-08-08 22:48:00,55.0,48.6,29.87,NNE,24,5.8,5.8,79,0.00,CLR,,0.01,WeatherDisplay:10.37,2013-08-09 04:48:00,
2013-08-08 22:53:00,55.0,48.3,29.87,NNE,15,4.6,4.6,78,0.00,CLR,,0.01,WeatherDisplay:10.37,2013-08-09 04:53:00,
2013-08-08 22:58:00,54.8,47.7,29.87,NE,48,2.3,2.3,77,0.00,CLR,,0.01,WeatherDisplay:10.37,2013-08-09 04:58:00,
2013-08-08 23:03:00,55.0,47.6,29.88,East,81,3.5,3.5,76,0.00,CLR,,0.01,WeatherDisplay:10.37,2013-08-09 05:03:00,
2013-08-08 23:08:00,55.3,47.2,29.88,SE,124,3.5,3.5,74,0.00,CLR,,0.01,WeatherDisplay:10.37,2013-08-09 05:08:00,
2013-08-08 23:13:00,55.1,45.1,29.88,SE,128,6.9,6.9,69,0.00,CLR,,0.01,WeatherDisplay:10.37,2013-08-09 05:13:00,
2013-08-08 23:18:00,55.3,44.9,29.87,NE,55,7.0,7.1,68,0.00,CLR,,0.01,WeatherDisplay:10.37,2013-08-09 05:18:00,
2013-08-08 23:23:00,55.1,45.1,29.87,East,86,10.0,10.0,69,0.00,CLR,,0.01,WeatherDisplay:10.37,2013-08-09 05:23:00,
2013-08-08 23:28:00,55.0,45.4,29.87,ESE,104,4.6,4.6,70,0.00,CLR,,0.01,WeatherDisplay:10.37,2013-08-09 05:28:00,
2013-08-08 23:33:00,54.5,46.0,29.87,SE,128,3.5,3.5,73,0.00,CLR,,0.01,WeatherDisplay:10.37,2013-08-09 05:33:00,
2013-08-08 23:38:00,53.9,46.5,29.87,SE,127,3.5,3.5,76,0.00,CLR,,0.01,WeatherDisplay:10.37,2013-08-09 05:38:00,
2013-08-08 23:43:00,53.5,46.8,29.87,ESE,118,3.5,3.5,78,0.00,CLR,,0.01,WeatherDisplay:10.37,2013-08-09 05:43:00,
2013-08-08 23:48:00,53.2,46.5,29.88,SSE,155,3.5,3.5,78,0.00,CLR,,0.01,WeatherDisplay:10.37,2013-08-09 05:48:00,
2013-08-08 23:53:00,53.2,46.5,29.88,SSE,155,1.2,1.2,78,0.00,CLR,,0.01,WeatherDisplay:10.37,2013-08-09 05:53:00,
2013-08-08 23:58:00,53.2,46.5,29.88,SSE,155,2.0,2.0,78,0.00,CLR,,0.01,WeatherDisplay:10.37,2013-08-09 05:58:00,